Regional Weather Roundup
Issued by NWS

Home | Current Version | Previous Version | Graphics & Text | Print | Product List | Glossary On
Versions: 1 2 3 4 5 6 7 8 9 10 11 12 13 14 15 16 17 18 19 20 21 22 23 24 25 26 27
000
ASUS45 KCYS 190910
RWRWY

WYOMING REGIONAL WEATHER ROUNDUP
NATIONAL WEATHER SERVICE CHEYENNE WY
300 AM MDT TUE SEP 19 2017

NOTE:  "FAIR" INDICATES FEW OR NO CLOUDS BELOW 12,000 FEET
WITH NO SIGNIFICANT WEATHER AND/OR OBSTRUCTIONS TO VISIBILITY.

WYZ001-191000-
YELLOWSTONE NATIONAL PARK

CITY           SKY/WX    TMP DP  RH WIND       PRES   REMARKS
LK YELLOWSTONE   N/A     36  36 100 VRB6      29.76S WCI  31
W YELLOWSTONE  NOT AVBL

$$
WYZ002>013-054>058-071-098>099-191000-
NORTHERN WYOMING

CITY           SKY/WX    TMP DP  RH WIND       PRES   REMARKS
JACKSON        CLOUDY    40  39  97 SW10      29.76S WCI  33
CODY           FAIR      51  40  65 SW9       29.64F
GREYBULL       LGT RAIN  52  49  89 E20G31    29.59F
WORLAND        RAIN      51  50  96 E7        29.68S
SHERIDAN       CLOUDY    61  39  44 W24G37    29.58F
BUFFALO        FAIR      57  38  48 N10       29.65S
GILLETTE       FAIR      60  37  42 W10       29.60R
HULETT         FAIR      70  34  26 S17G29    29.56F
NEWCASTLE      FAIR      63  32  31 SE20G28   29.64F

$$
WYZ014>020-022>026-101>103-191000-
CENTRAL WYOMING

CITY           SKY/WX    TMP DP  RH WIND       PRES   REMARKS
BIG PINEY      LGT RAIN  43  41  93 E5        29.81F
PINEDALE       RAIN      41  39  93 CALM      29.84F
DUBOIS         DRIZZLE   37  34  87 CALM      29.75F
LANDER           N/A    N/A N/A N/A MISG      29.72S
RIVERTON       LGT RAIN  50  42  74 NW21G30   29.70F
CASPER         FAIR      58  35  42 W9        29.66F
DOUGLAS        FAIR      62  31  31 S10       29.66F

$$
WYZ021-027>030-104>119-191000-
SOUTHERN WYOMING

CITY           SKY/WX    TMP DP  RH WIND       PRES   REMARKS
EVANSTON       CLOUDY    45  44  97 SW8       29.84F
KEMMERER       RAIN      43  41  93 SW14      29.85S
FORT BRIDGER   FAIR      46  46  97 W12       29.87F
ROCK SPRINGS   FAIR      49  39  68 SW8       29.81F
DIXON          FAIR      64  19  17 S20G29    29.84F
RAWLINS        FAIR      62  22  21 SW28G39   29.77F
SARATOGA       FAIR      59  21  23 S13G23    29.81F
LARAMIE        FAIR      54  19  25 S14       29.85F
CHEYENNE       FAIR      49  33  54 W3        29.80F
TORRINGTON     FAIR      59  42  53 SE10      29.69F
PINE BLUFFS    FAIR      48  37  66 S7        29.77F

$$




USA.gov is the U.S. government's official web portal to all federal, state and local government web resources and services.